Hourly Data Report for September 15, 2017

All times are specified in Local Standard Time (LST). Add 1 hour to adjust for Daylight Saving Time where and when it is observed.

NAPPAN AUTO
NOVA SCOTIA

45°45'34.400" N
64°14'29.200" W
19.80 m
8203702
71311
XNP

Download Data

Hourly Data (September 2017)
Hourly Data Report for September 15, 2017
Temp Definition
°C
Dew Point Temp Definition
°C
Rel Hum Definition
%
Wind Dir Definition
10's deg

Wind Spd Definition
km/h
Visibility Definition
km
Stn Press Definition
kPa
Hmdx Definition


Wind Chill Definition


Weather Definition


TIME
00:00 14.7 13.6 93 29 4   101.13     LegendNANA
01:00 14.3 13.7 96 18 3   101.20     LegendNANA
02:00 14.6 14.2 97 24 4   101.28     LegendNANA
03:00 14.3 13.9 97 19 3   101.32     LegendNANA
04:00 14.1 13.8 98 0 1   101.36     LegendNANA
05:00 14.0 13.6 98 5 4   101.43     LegendNANA
06:00 14.3 14.0 98 4 2   101.52     LegendNANA
07:00 14.9 14.6 98 7 6   101.62     LegendNANA
08:00 16.3 13.7 85 8 11   101.72     LegendNANA
09:00 17.7 11.5 67 8 13   101.77     LegendNANA
10:00 19.6 11.7 60 6 8   101.81     LegendNANA
11:00 20.0 11.2 57 3 13   101.84     LegendNANA
12:00 21.2 10.5 50 2 9   101.81     LegendNANA
13:00 22.4 12.1 52 2 8   101.78 25   LegendNANA
14:00 22.8 12.4 52 2 12   101.74 25   LegendNANA
15:00 22.5 12.6 54 4 12   101.76 25   LegendNANA
16:00 21.8 11.9 53 4 11   101.77     LegendNANA
17:00 20.9 12.6 59 4 10   101.79     LegendNANA
18:00 18.9 12.6 67 4 11   101.80     LegendNANA
19:00 15.7 12.0 78 2 8   101.87     LegendNANA
20:00 14.6 12.0 85   0   101.88     LegendNANA
21:00 13.5 11.6 88 2 4   101.86     LegendNANA
22:00 13.0 11.4 90 21 5   101.85     LegendNANA
23:00 13.3 11.8 91 15 2   101.84     LegendNANA

Notes on Data Quality.

Legend

  • E = Estimated
  • M = Missing
  • NA = Not Available
  • ‡ = Partner data that is not subject to review by the National Climate Archives
Date modified: